Regional Weather Roundup
Issued by NWS Portland, ME

Current Version | Previous Version | Text Only | Print | Product List | Glossary Off
Versions: 1 2 3 4 5 6 7 8 9 10 11 12 13 14 15 16 17 18 19 20 21 22 23 24 25 26 27 28 29 30 31 32 33 34 35 36 37 38 39 40 41 42 43 44 45 46 47 48 49 50

000
ASUS41 KGYX 212005
RWRGYX
WEATHER ROUNDUP FOR MAINE AND NEW HAMPSHIRE
NATIONAL WEATHER SERVICE GRAY ME
300 PM EST SUN DEC 21 2014

MEZ002-005-006-010-012-015-018-020-021-024-026-027-029-212100-
MAINE

CITY           SKY/WX    TMP DP  RH WIND       PRES   REMARKS
PORTLAND       MOCLDY    34  25  69 N3        30.33R
SANFORD        CLOUDY    30  21  69 N5        30.32R
BAR HARBOR     CLOUDY    34  28  80 NE5       30.33S
WISCASSET      CLOUDY    33  24  69 CALM      30.34S
ROCKLAND       CLOUDY    34  28  80 NE7       30.32R
FRYEBURG       CLOUDY    29  19  66 CALM      30.32R
LEWISTONAUBURN CLOUDY    30  21  69 N6        30.32R
AUGUSTA        CLOUDY    30  21  69 NW6       30.33R
WATERVILLE     MOCLDY    30  21  69 CALM      30.30R
BANGOR         CLOUDY    30  25  81 N5        30.34S
GREENVILLE       N/A     25  23  92 CALM      30.24R
MILLINOCKET    CLOUDY    27  23  85 NE3       30.34S
HOULTON        CLOUDY    27  22  81 E3        30.33S
PRESQUE ISLE   CLOUDY    25  12  58 CALM      30.34R
FRENCHVILLE    CLOUDY    18  16  92 SW8       30.31R
CARIBOU        CLOUDY    24  19  81 CALM      30.33R
$$

NHZ002-005-008-009-011-012-014-212100-
NEW HAMPSHIRE

CITY           SKY/WX    TMP DP  RH WIND       PRES   REMARKS
PORTSMOUTH     CLOUDY    34  22  62 N5        30.31R
ROCHESTER      CLOUDY    33  22  63 N5        30.30S
NASHUA         FLURRIES  33  28  82 CALM      30.32S
MANCHESTER     FLURRIES  32  28  85 N5        30.30S
CONCORD        CLOUDY    31  26  82 W3        30.31R
LACONIA        CLOUDY    30  21  69 CALM      30.29R
PLYMOUTH       CLOUDY    31  28  87 CALM      30.30S
BERLIN         CLOUDY    24  17  74 CALM      30.27S
WHITEFIELD     CLOUDY    27  21  78 CALM      30.28R
JAFFREY        CLOUDY    30  26  85 VRB3      30.26S
KEENE          CLOUDY    34  28  80 CALM      30.29S
LEBANON        CLOUDY    29  24  82 CALM      30.30R
MT WASHINGTON  SNOW      10  10 100 W18         N/A  VSB 1/8 WCI  -8
$$

VTZ005-007-008-212100-
VERMONT

CITY           SKY/WX    TMP DP  RH WIND       PRES   REMARKS
ST JOHNSBURY     N/A     27  21  78 MISG      30.29S
MONTPELIER     CLOUDY    24  18  77 NW3       30.31S
BURLINGTON     CLOUDY    26  19  74 NW3       30.34S
$$

MAZ007-012-024-CTZ003-RIZ002-NYZ038-NYZ072-212100-
SOUTHERN NEW ENGLAND AND NY

CITY           SKY/WX    TMP DP  RH WIND       PRES   REMARKS
BOSTON         FLURRIES  33  29  85 N8        30.31S
WORCESTER      LGT SNOW  29  27  92 NE7       30.26R FOG
NANTUCKET      CLOUDY    43  32  65 N12       30.25R
PROVIDENCE     FLURRIES  34  31  88 N9        30.29S
HARTFORD       CLOUDY    34  29  82 N7        30.28S
ALBANY         CLOUDY    31  23  72 CALM      30.33R
NEW YORK CITY  PTSUNNY   35  29  78 N8        30.29R
$$

ANZ081-ANZ082-ANZ150-NHZ014-MEZ023>029-212100-
COASTAL MARINE OBSERVATIONS

STATION/POSITION TIME  TEMP    WIND        PRES    WAVE
                       AIR SEA DIR/SP/G            HT/PER
                 (UTC) (F)     (DEG/KT/KT) (MB)    (FT/S)
MOUNT DESERT ROC 2000   37                 1025.8R
MATINICUS ROCK   1900           40/ 13/ 15 1025.7S
PORTLAND WX BUOY 1950   33 43   10/ 10/ 12 1026.8R   2/10
WELLS            1900   32 38  350/  6/  8 1025.9R
ISLE OF SHOALS   1900   32      10/  9/ 10 1025.9R
JEFFREYS LEDGE   1921      49                N/A     4/ 5
CASHES LEDGE BUO 1950   40 48   30/ 12/ 14 1025.4R   3/ 8
$$

.............KEY..............
   WCI - WIND CHILL
   TC  - TEMPERATURE IN CELSIUS
   VSB - VISIBILITY IN MILES
   HX  - HEAT INDEX
   FAIR- INDICATES FEW OR NO CLOUDS BELOW 12,000 FT, WITH NO
         SIGNIFICANT WEATHER AND/OR OBSTRUCTIONS TO VISIBILITY.




USA.gov is the U.S. government's official web portal to all federal, state and local government web resources and services.